This is the latest recevied weather packets stored in our database for station/object KR8N. If no packets are shown the sender has not sent any weather packets the latest 10 day(s).
| Time | Temp. | Humidity | Pressure | Rain* | Wind** | Luminosity | Snow |
|---|---|---|---|---|---|---|---|
| 1777849311 | 15° C | 30% | 1018.2 hPa | 0 mm | - | 108 W/m² | - |
| 1777849008 | 15° C | 32% | 1018.5 hPa | 0 mm | - | 115 W/m² | - |
| 1777848708 | 15° C | 29% | 1018.6 hPa | 0 mm | - | 127 W/m² | - |
| 1777848406 | 15° C | 30% | 1018.8 hPa | 0 mm | - | 144 W/m² | - |
| 1777848104 | 15° C | 30% | 1018.5 hPa | 0 mm | - | 156 W/m² | - |
| 1777847801 | 15° C | 29% | 1018.9 hPa | 0 mm | - | 171 W/m² | - |
| 1777847498 | 14.44° C | 32% | 1018.9 hPa | 0 mm | - | 186 W/m² | - |
| 1777847195 | 14.44° C | 29% | 1018.8 hPa | 0 mm | - | 204 W/m² | - |
| 1777846892 | 14.44° C | 30% | 1018.6 hPa | 0 mm | - | 216 W/m² | - |
| 1777846591 | 14.44° C | 28% | 1018.9 hPa | 0 mm | - | 207 W/m² | - |
| 1777846288 | 15° C | 28% | 1018.7 hPa | 0 mm | - | 248 W/m² | - |
| 1777845985 | 15° C | 28% | 1018.9 hPa | 0 mm | - | 265 W/m² | - |
| 1777845681 | 15° C | 31% | 1018.7 hPa | 0 mm | - | 281 W/m² | - |
| 1777845378 | 15° C | 31% | 1018.7 hPa | 0 mm | - | 299 W/m² | - |
| 1777845075 | 15° C | 27% | 1018.7 hPa | 0 mm | - | 316 W/m² | - |
| 1777844774 | 15.56° C | 28% | 1018.7 hPa | 0 mm | - | 324 W/m² | - |
| 1777844469 | 15° C | 27% | 1018.8 hPa | 0 mm | - | 353 W/m² | - |
| 1777844169 | 15° C | 26% | 1018.7 hPa | 0 mm | - | 371 W/m² | - |
| 1777843864 | 15° C | 29% | 1019 hPa | 0 mm | - | 389 W/m² | - |
| 1777843562 | 15° C | 29% | 1018.6 hPa | 0 mm | - | 406 W/m² | - |
| 1777843259 | 15° C | 30% | 1018.7 hPa | 0 mm | - | 424 W/m² | - |
| 1777842956 | 15° C | 29% | 1018.8 hPa | 0 mm | - | 442 W/m² | - |
| 1777842651 | 15.56° C | 29% | 1018.9 hPa | 0 mm | - | 460 W/m² | - |
| 1777842349 | 15.56° C | 31% | 1018.8 hPa | 0 mm | - | 477 W/m² | - |
| 1777842044 | 15° C | 30% | 1018.8 hPa | 0 mm | - | 495 W/m² | - |
* Rain latest hour (hover to see other rain measurements)
** Current wind speed in m/s (hover to see current wind gust speed)